Probability
0 0 0 0 0 0 0 0 0 0 0 0 0 0 0 0 0 0 0 0 0 0 0 0 0 0 0 0 0 0 0 0 0 0 0 0 0 0 0 0 0 0 0 0
0 0 0 0 0 0 0 0 0 0 0 0 0 0 0 0 0 0 0 0 0 0 0 0 0 0 0 0 0 0 0 0 0 0 0 0 0 0 0 0 0 0 0 0
0 0 0 0 0 0 0 0 0 0 0 0 0 0 0 0 0 0 0 0 0 0 0 0 0 0 0 0 0 0 0 0 0 0 0 0 0 0 0 0 0 0 0 0
0 0 0 0 0 0 0 0 0 0 0 0 0 0 0 0 0 0 0 0 0 0 0 0 0 0 0 0 0 0 0 0 0 0 0 0 0 0 0 0 0 0 0 0
0 0 0 0 0 0 0 0 0 0 0 0 0 0 0 0 0 0 0 0 0 0 0 0 0 0 0 0 0 0 0 0 0 0 0 0 0 0 0 0 0 0 0 0
0 0 0 0 0 0 0 0 0 0 0 0 0 0 0 0 0 0 0 0 0 0 0 0 0 0 0 0 0 0 0 0 0 0 0 0 0 0 0 0 0 0 0 0
0 0 0 0 0 0 0 0 0 0 0 0 0 0 0 0 0 0 0 0 0 0 0 0 0 0 0 0 0 0 0 0 0 0 0 0 0 0 0 0 0 0 0 0
0 0 0 0 0 0 0 0 0 0 0 0 0 0 0 0 0 0 0 0 0 0 0 0 0 0 0 0 0 0 0 0 0 0 0 0 0 0 0 0 0 0 0 0
0 0 0 0 0 0 0 0 0 0 0 0 0 0 0 0 0 0 0 0 0 0 0 0 0 0 0 0 0 0 0 0 0 0 0 0 0 0 0 0 0 0 0 0
0 0 0 0 0 0 0 0 0 0 0 0 0 0 0 0 0 0 0 0 0 0 0 0 0 0 0 0 0 0 0 0 0 0 0 0 0 0 0 0 0 0 0 0
0 0 0 0 0 0 0 0 0 0 0 0 0 0 0 0 0 0 0 0 0 0 0 0 0 0 0 0 0 0 0 0 0 0 0 0 0 0 0 0 0 0 0 0
0 0 0 0 0 0 0 0 0 0 0 0 0 0 0 0 0 0 0 0 0 0 0 0 0 0 0 0 0 0 0 0 0 0 0 0 0 0 0 0 0 0 0 0
0 0 0 0 0 0 0 0 0 0 0 0 0 0 0 0 0 0 0 0 0 0 0 0 0 0 0 0 0 0 0 0 0 0 0 0 0 0 0 0 0 0 0 0
0 0 0 0 0 0 0 0 0 0 0 0 0 0 0 0 0 0 0 0 0 0 0 0 0 0 0 0 0 0 0 0 0 0 0 0 0 0 0 0 0 0 0 0
0 0 0 0 0 0 0 0 0 0 0 0 0 0 0 0 0 0 0 0 0 0 0 0 0 0 0 0 0 0 0 0 0 0 0 0 0 0 0 0 0 0 0 0
0 0 0 0 0 0 0 0 0 0 0 0 0 0 0 0 0 0 0 0 0 0 0 0 0 0 0 0 0 0 0 0 0 0 0 0 0 0 0 0 0 0 0 0
0 0 0 0 0 0 0 0 0 0 0 0 0 0 0 0 0 0 0 0 0 0 0 0 0 0 0 0 0 0 0 0 0 0 0 0 0 0 0 0 0 0 0 0
0 0 0 0 0 0 0 0 0 0 0 0 0 0 0 0 0 0 0 0 0 0 0 0 0 0 0 0 0 0 0 0 0 0 0 0 0 0 0 0 0 0 0 0
0 0 0 0 0 0 0 0 0 0 0 0 0 0 0 0 0 0 0 0 0 0 0 0 0 0 0 0 0 0 0 0 0 0 0 0 0 0 0 0 0 0 0 0
0 0 0 0 0 0 0 0 0 0 0 0 0 0 0 0 0 0 0 0 0 0 0 0 0 0 0 0 0 0 0 0 0 0 0 0 0 0 0 0 0 0 0 0
0 0 0 0 0 0 0 0 0 0 0 0 0 0 0 0 0 0 0 0 0 0 0 0 0 0 0 0 0 0 0 0 0 0 0 0 0 0 0 0 0 0 0 0
0 0 0 0 0 0 0 0 0 0 0 0 0 0 0 0 0 0 0 0 0 0 0 0 0 0 0 0 0 0 0 0 0 0 0 0 0 0 0 0 0 0 0 0
0 0 0 0 0 0 0 0 0 0 0 0 0 0 0 0 0 0 0 0 0 0 0 0 0 0 0 0 0 0 0 0 0 0 0 0 0 0 0 0 0 0 0 0
0 0 0 0 0 0 0 0 0 0 0 0 0 0 0 0 0 0 0 0 0 0 0 0 0 0 0 0 0 0 0 0 0 0 0 0 0 0 0 0 0 0 0 0
0 0 0 0 0 0 0 0 0 0 0 0 0 0 0 0 0 0 0 0 0 0 0 0 0 0 0 0 0 0 0 0 0 0 0 0 0 0 0 0 0 0 0 0
0 0 0 0 0 0 0 0 0 0 0 0 0 0 0 0 0 0 0 0 0 0 0 0 0 0 0 0 0 0 0 0 0 0 0 0 0 0 0 0 0 0 0 0
0 0 0 0 0 0 0 0 0 0 0 0 0 0 0 0 0 0 0 0 0 0 0 0 0 0 0 0 0 0 0 0 0 0 0 0 0 0 0 0 0 0 0 0
Wind_Speed
5 3 3 6 7 7 9 9 10 10 10 16 10 7 7 6 5 5 6 5 5 4 4 3 3 2 2 2 1 1 0 1 2 1 1 1 1 1 1 1 1 2 2 2
4 2 3 7 10 11 11 9 11 11 16 14 8 5 6 6 6 6 7 6 6 5 4 4 4 3 3 3 2 1 1 2 1 1 1 1 1 1 1 2 2 2 2 3
4 3 4 10 11 13 9 11 11 14 16 7 6 7 7 7 6 8 8 7 6 6 5 5 4 4 4 3 1 1 1 1 1 1 1 1 1 1 1 2 2 2 3 3
1 3 8 10 4 9 9 10 12 12 11 9 9 7 7 8 8 9 8 7 6 5 5 4 3 3 3 2 2 2 1 2 1 1 2 2 1 2 2 1 2 2 3 4
3 3 11 10 4 7 8 10 11 15 15 11 5 5 8 8 9 9 8 7 6 5 4 3 3 3 2 2 1 2 2 2 2 2 2 2 2 2 2 2 2 2 3 3
4 4 9 8 3 5 3 8 7 11 12 8 2 3 7 4 4 6 6 4 4 2 2 2 3 3 3 3 2 3 3 3 2 2 3 3 3 2 2 2 2 2 3 3
6 8 14 8 4 6 5 9 4 8 9 8 9 10 6 3 3 4 4 4 3 2 3 3 3 3 3 3 4 4 2 2 2 2 2 2 2 2 2 2 2 2 3 3
7 7 15 7 9 12 11 3 3 5 6 7 9 8 7 6 5 4 3 3 3 3 3 2 3 4 4 5 4 1 1 2 2 2 2 1 1 2 1 1 2 3 3 4
14 14 6 9 11 8 2 4 4 4 5 5 6 7 7 6 6 5 5 4 3 3 3 3 3 4 5 4 2 2 2 2 2 1 1 1 1 2 1 1 2 2 2 3
8 13 8 8 8 7 6 7 6 5 4 4 7 8 7 6 6 5 5 4 3 3 4 4 3 4 5 3 2 3 3 3 2 2 1 1 1 1 2 2 2 3 3 4
10 10 7 8 10 11 9 8 7 7 5 6 7 8 8 7 6 5 5 3 3 4 5 5 3 3 3 3 3 3 3 2 2 2 2 1 1 2 3 3 3 4 3 3
12 9 8 8 5 6 7 8 8 7 6 5 6 8 7 7 6 5 4 3 3 4 5 4 3 3 2 2 3 4 3 3 2 2 1 1 1 2 3 4 5 6 6 5
8 5 7 7 5 5 6 7 6 6 6 6 5 5 6 6 5 4 4 4 4 5 5 4 3 3 2 2 3 4 4 3 2 2 2 2 2 2 3 3 4 6 7 7
7 4 7 7 8 6 6 6 5 5 5 5 5 4 4 5 4 5 5 5 4 3 3 3 3 4 2 3 3 3 3 3 3 2 2 2 2 2 2 2 3 4 5 7
9 9 10 6 5 5 4 3 4 6 6 5 4 4 4 5 6 6 5 3 2 3 3 3 3 4 2 3 3 3 3 2 2 2 2 2 2 2 2 3 3 3 3 4
6 6 6 7 8 7 5 4 6 7 6 6 5 5 5 5 5 4 3 2 3 4 3 3 4 3 2 2 2 2 2 2 2 1 1 2 2 2 3 3 3 3 4 4
4 6 6 7 8 7 7 7 7 7 6 6 6 5 4 3 3 4 4 3 3 3 2 3 3 2 2 3 3 2 2 2 2 2 2 2 2 3 3 3 3 4 4 5
8 8 7 6 7 7 8 6 6 6 6 6 4 3 3 4 5 4 3 1 1 1 2 2 2 1 1 2 2 2 2 2 2 2 2 2 2 2 3 3 4 4 4 4
7 7 7 6 6 6 6 6 6 5 5 3 3 4 4 4 3 2 1 0 1 2 3 2 1 1 1 2 2 2 2 2 2 2 2 2 2 2 3 3 3 4 4 3
5 5 5 5 4 4 5 5 4 4 3 2 2 3 3 3 1 1 1 1 2 2 1 1 0 1 1 2 1 1 2 2 2 2 2 2 3 3 3 3 4 4 4 4
5 5 4 4 4 4 3 3 2 3 2 1 2 3 3 2 1 1 1 2 2 1 1 1 1 1 1 1 2 2 2 2 2 3 3 3 3 3 3 3 4 4 4 4
4 4 4 3 3 3 3 2 1 1 1 1 1 1 1 1 1 1 2 2 1 1 1 1 1 1 1 1 1 2 2 2 2 2 3 3 3 3 4 4 4 4 4 4
4 4 4 3 3 2 2 1 1 1 1 1 1 1 1 1 1 1 2 1 1 1 1 1 2 2 1 0 1 1 2 2 3 3 3 3 3 4 4 4 4 4 4 4
3 3 3 2 1 1 2 2 1 1 1 1 1 1 1 1 1 1 1 1 1 1 1 1 2 1 1 0 0 1 1 2 2 2 3 3 3 3 4 4 4 4 4 5
2 2 1 1 1 2 2 1 1 1 1 1 1 1 0 0 1 1 1 1 2 1 1 2 2 2 1 0 1 1 2 2 2 2 2 3 3 3 3 4 4 4 5 5
2 2 2 2 2 1 1 0 0 1 1 1 1 1 1 1 1 1 1 1 1 1 1 1 1 1 1 1 1 2 2 2 2 2 3 3 3 3 4 4 5 5 5 5
1 1 0 1 1 0 0 1 1 1 1 1 1 1 1 1 1 1 1 1 1 1 1 1 1 1 1 1 2 2 2 2 2 3 3 3 3 3 4 5 5 5 5 5
Wind_Direction
256 265 235 235 229 204 208 212 220 243 247 265 270 267 273 274 275 282 283 280 270 265 264 260 258 255 249 251 252 233 218 247 264 282 292 270 261 276 280 267 264 265 267 271
289 270 261 264 246 222 226 230 241 261 269 261 267 263 263 264 264 267 268 268 266 261 258 252 243 238 237 240 235 197 215 250 282 315 324 318 275 279 282 274 270 260 256 262
274 311 334 271 231 205 211 214 205 231 246 261 269 261 256 258 259 257 261 262 257 252 246 242 231 219 220 225 211 201 228 262 291 299 302 307 318 298 277 275 275 270 269 268
273 25 252 249 190 191 213 234 219 238 254 254 250 268 265 248 244 252 252 251 250 245 244 236 220 213 206 188 191 209 240 265 280 286 292 307 301 288 285 282 272 272 274 267
144 246 275 286 222 183 201 261 219 228 249 258 273 309 281 246 223 230 238 241 243 237 229 223 215 205 188 193 195 213 240 251 255 247 259 274 278 281 285 282 278 275 277 273
157 204 245 250 191 172 144 278 225 206 232 238 183 260 268 253 225 235 243 242 239 228 209 214 218 189 187 206 212 232 241 248 247 238 241 251 260 272 280 275 276 285 288 282
195 228 259 246 165 139 180 245 214 197 216 201 201 222 248 273 262 246 245 243 227 211 218 223 206 184 204 218 233 237 236 243 248 247 245 250 260 274 281 283 292 291 288 289
176 214 252 193 154 190 217 231 201 204 210 212 229 249 264 271 268 263 257 243 217 220 239 228 194 189 215 234 239 210 205 226 243 251 253 255 256 280 288 280 283 288 293 296
196 217 240 176 201 221 219 227 228 220 223 219 242 257 261 264 265 265 254 244 227 225 245 240 208 196 220 236 206 188 209 230 241 253 259 256 245 259 279 267 265 276 279 284
245 256 248 233 246 255 242 242 251 251 254 232 242 258 264 265 266 264 258 244 229 221 242 251 228 216 222 221 180 192 216 232 232 233 252 262 252 239 241 245 252 260 266 275
252 268 289 264 235 243 247 251 261 262 249 243 247 260 259 263 263 257 255 248 222 222 237 247 237 232 227 202 181 201 216 223 230 238 240 246 250 249 249 246 239 251 256 259
231 225 214 248 244 228 234 247 249 254 262 252 237 252 261 265 264 260 256 244 236 236 241 248 236 235 227 202 189 193 212 218 218 224 235 238 254 291 278 269 282 279 277 277
240 243 234 257 264 243 241 251 252 243 247 259 257 251 259 267 270 264 258 248 239 238 238 240 238 236 223 197 190 200 215 219 215 218 225 232 239 252 284 305 297 293 290 291
248 265 267 257 256 256 253 260 264 265 259 253 257 262 258 264 271 265 263 260 253 244 237 229 230 241 229 194 191 205 218 221 217 219 222 226 232 243 253 271 297 302 299 297
249 237 246 271 285 283 279 283 279 275 276 276 266 261 258 259 263 263 267 269 258 248 242 227 234 250 219 185 191 204 210 218 218 223 223 225 230 238 246 251 264 284 300 304
260 254 259 267 271 280 287 276 265 270 273 276 278 272 266 263 269 274 275 256 235 243 238 228 240 247 196 180 193 207 215 221 213 214 224 232 236 241 250 256 265 274 278 284
252 260 258 262 264 266 261 257 258 267 272 271 272 278 277 276 277 273 272 263 240 243 243 235 246 238 192 187 196 207 208 211 210 216 224 230 237 245 252 258 265 270 272 276
237 249 251 256 264 265 267 264 263 266 266 271 278 277 264 255 261 266 272 284 274 284 289 276 261 235 217 204 200 199 199 205 209 222 231 235 243 247 253 258 261 268 282 289
249 256 262 263 262 261 267 268 267 268 271 268 260 260 261 261 262 268 281 240 237 267 282 280 261 184 233 238 206 194 199 210 224 235 238 244 250 252 254 260 269 275 279 281
271 272 269 272 273 262 264 271 275 274 274 265 259 265 273 275 267 250 217 246 252 266 284 278 232 221 236 236 209 196 203 211 224 235 240 243 248 256 259 265 271 274 276 277
277 279 276 274 279 280 275 277 270 270 280 268 244 251 257 269 245 193 195 267 282 340 319 258 228 241 236 223 199 203 211 218 226 233 239 246 252 259 262 264 268 272 273 276
278 275 272 270 274 288 303 306 285 276 291 289 273 265 267 281 278 257 230 243 281 320 326 290 284 270 253 224 203 210 222 227 235 239 243 247 252 260 266 268 269 273 275 277
280 278 277 274 270 281 319 332 321 308 289 276 262 253 259 272 262 246 277 287 303 294 309 290 296 301 301 208 198 212 230 239 244 244 246 249 254 259 266 269 271 274 278 280
278 280 285 294 310 311 298 305 326 341 332 313 289 276 278 304 307 293 305 324 327 318 312 299 305 322 5 357 254 247 251 255 259 261 257 255 258 263 267 271 276 279 278 278
276 278 287 279 254 260 272 306 4 11 8 345 340 349 331 236 237 283 327 319 322 341 333 319 323 336 351 278 267 264 264 262 265 268 270 271 271 272 273 273 273 276 277 275
274 264 257 254 262 266 254 216 268 293 314 325 328 346 3 15 31 5 352 348 355 353 342 333 329 324 301 280 274 275 276 280 283 280 277 279 280 279 278 277 277 276 277 277
307 305 309 318 316 301 224 215 224 245 241 235 279 316 345 1 15 11 3 352 349 346 338 329 324 316 305 295 290 287 284 282 279 276 275 276 277 276 277 278 278 278 277 278